Lapse_Rate
6.6 6.8 6.9 6.7 6.6 6.4 6.3 6.2 6.3 6.2 6.2 6.3 6.3 6.3 6.3 6.3 6.4 6.4 6.6 6.4 6.2 6.2 6.2 6.5 6.6 6.8 6.7 5.8 6.3 6.6 7.0 6.7 7.0 7.1 7.0 7.1 7.1 7.2 6.9 6.8 6.7 6.5 6.5 6.2 6.4
6.5 6.8 6.9 6.8 6.7 6.3 6.2 6.2 6.3 6.2 6.3 6.4 6.3 6.3 6.3 6.2 6.2 6.5 6.4 6.4 6.3 6.2 6.0 5.8 5.7 6.6 6.1 6.0 6.4 6.3 6.9 7.4 7.6 7.1 7.7 7.4 7.4 7.1 7.0 7.0 6.6 6.4 6.2 6.4 6.3
6.6 6.9 6.9 6.8 6.7 6.4 6.2 6.3 6.4 6.3 6.3 6.3 6.3 6.2 6.2 6.3 6.3 6.1 6.1 6.4 6.5 6.5 6.2 5.5 5.9 6.4 6.2 6.3 7.0 6.8 7.6 8.0 7.6 7.8 7.6 7.3 7.6 7.1 7.3 6.5 6.7 6.2 6.6 6.5 5.9
6.6 6.9 6.9 6.9 6.8 6.4 6.3 6.4 6.4 6.4 6.3 6.4 6.4 6.3 6.2 6.3 6.4 6.3 6.3 6.4 6.6 6.5 6.7 5.6 6.2 4.9 5.9 6.2 7.3 7.5 7.8 7.6 7.3 7.5 7.5 7.6 7.6 7.0 7.2 7.3 6.9 6.1 6.4 6.4 5.8
6.7 6.9 6.9 7.0 6.9 6.6 6.4 6.4 6.4 6.4 6.4 6.4 6.4 6.3 6.2 6.1 6.0 6.2 6.2 6.3 6.5 6.4 6.4 6.1 6.1 5.4 5.7 6.6 7.5 7.3 7.7 7.5 7.4 7.4 7.5 7.3 7.3 7.9 7.2 7.0 6.5 5.8 5.9 5.7 5.1
6.8 6.9 7.0 7.0 7.0 6.8 6.5 6.5 6.5 6.5 6.5 6.6 6.4 6.2 6.2 6.0 6.3 6.1 6.2 6.4 6.5 6.1 5.9 6.3 6.9 6.9 5.4 7.2 7.9 7.5 7.8 7.4 7.5 7.5 7.4 7.1 7.2 7.0 7.2 6.9 6.4 5.9 5.5 5.3 5.4
6.9 7.1 7.1 7.1 7.1 6.9 6.6 6.6 6.6 6.6 6.7 6.5 6.3 6.3 6.4 6.0 6.0 6.2 6.3 6.2 6.1 5.7 6.2 6.5 6.9 7.3 7.6 6.9 8.0 7.2 6.6 8.2 7.5 7.9 7.7 7.4 7.4 6.9 6.8 7.3 6.6 6.0 5.8 5.6 5.5
7.0 7.1 7.2 7.2 7.2 7.0 6.8 6.6 6.7 6.7 6.6 6.4 6.3 6.4 6.4 6.4 6.3 6.2 6.3 6.0 6.6 6.4 6.0 6.4 6.6 6.9 7.3 7.4 7.3 6.2 6.2 7.2 7.8 7.3 7.0 7.7 7.1 6.9 7.1 7.8 6.7 6.5 6.1 5.9 5.6
7.1 7.2 7.3 7.3 7.3 7.2 7.0 6.8 6.7 6.6 6.5 6.4 6.4 6.5 6.4 6.6 6.4 6.3 6.2 6.1 6.2 6.4 6.5 6.7 6.8 6.7 6.3 6.4 7.0 6.5 6.0 6.3 7.1 7.2 6.4 7.3 8.0 7.3 6.4 6.4 7.0 6.6 6.4 6.1 6.0
7.0 7.2 7.3 7.3 7.4 7.3 7.0 6.9 6.8 6.7 6.5 6.4 6.5 6.6 6.6 6.4 6.3 6.2 6.3 6.4 6.5 6.8 6.8 7.1 6.0 7.0 7.2 6.5 7.4 7.1 6.7 6.9 7.1 7.6 7.6 7.6 8.1 7.4 7.6 6.4 6.2 6.7 6.7 6.4 6.4
6.9 7.2 7.3 7.4 7.4 7.5 7.0 6.8 6.7 6.6 6.6 6.6 6.7 6.9 6.7 6.7 6.4 6.4 6.5 6.6 6.8 7.1 7.0 6.8 6.1 7.6 7.7 7.7 8.1 7.3 7.6 7.1 8.0 7.8 7.5 7.9 8.6 7.8 8.4 7.7 6.1 7.0 6.6 6.6 6.5
6.7 7.1 7.3 7.3 7.5 7.5 7.1 7.0 6.7 6.5 6.5 6.7 6.5 6.6 6.6 6.5 6.6 6.6 6.6 6.8 7.1 7.3 6.6 6.5 7.3 7.5 7.3 8.4 7.9 8.0 8.4 8.1 8.8 8.6 8.4 8.4 7.9 8.0 7.3 8.0 7.5 7.4 6.8 6.7 6.5
6.7 6.9 7.1 7.2 7.3 7.5 7.3 7.5 6.6 6.5 6.7 6.8 6.6 6.7 6.7 6.7 7.0 7.1 6.7 7.1 7.4 7.2 6.7 7.0 7.3 7.6 8.3 8.4 8.7 8.4 8.2 8.7 9.0 9.1 8.4 8.7 7.8 8.5 8.0 8.2 8.1 8.6 8.0 7.6 6.5
6.7 6.8 6.8 6.9 7.1 7.3 7.3 7.2 7.0 6.7 6.9 7.3 7.1 7.1 7.0 6.9 6.9 6.8 6.9 7.1 7.4 7.8 7.5 7.3 7.4 8.3 8.4 8.4 8.4 8.2 8.2 8.5 8.7 8.6 7.9 8.2 6.4 8.0 7.2 7.5 8.3 8.3 8.0 8.2 7.8
6.7 6.6 6.7 6.9 7.2 6.7 6.7 7.2 7.1 6.9 7.9 7.5 7.4 7.5 7.3 7.0 7.0 7.0 7.1 7.4 7.6 7.6 8.2 8.2 8.0 8.2 8.7 8.5 8.2 9.0 8.6 8.3 8.7 9.5 9.1 9.1 8.7 8.6 8.8 9.1 9.0 8.4 8.1 7.8 8.1
6.7 6.6 6.6 6.8 7.0 7.6 7.1 7.3 7.3 7.6 8.7 8.2 7.9 7.6 7.3 7.2 7.2 7.2 7.2 7.2 7.6 8.0 8.0 7.7 7.6 8.6 9.0 8.5 8.4 8.2 8.3 8.6 8.9 9.2 9.0 9.6 8.9 8.8 8.8 8.1 8.2 7.8 7.2 7.1 7.4
6.6 6.5 6.7 6.9 6.3 7.0 7.2 7.3 7.5 8.6 8.8 8.5 8.0 7.8 7.7 8.2 7.9 7.5 7.5 7.8 8.4 7.4 7.3 7.7 8.5 9.0 8.3 8.1 8.5 8.2 9.5 8.9 9.6 9.1 9.4 9.5 9.4 9.5 8.5 7.9 7.5 7.3 7.1 6.9 7.5
6.6 6.5 6.7 7.0 7.3 7.2 7.5 7.3 7.9 9.7 9.3 8.9 8.3 8.1 8.8 9.3 9.2 8.9 9.2 9.0 7.8 8.4 7.9 7.9 8.4 9.1 8.4 8.3 8.0 8.2 9.1 9.6 9.1 9.6 9.7 9.6 9.7 9.4 9.2 7.9 7.8 7.6 7.6 7.3 6.7
6.6 6.5 6.7 6.7 7.0 7.3 7.3 7.6 9.5 9.7 9.5 9.4 9.4 9.3 8.9 8.6 8.8 8.0 9.0 8.9 7.9 7.7 8.1 8.1 8.1 9.3 8.8 8.3 8.3 8.5 8.5 8.7 9.0 9.6 9.7 9.8 9.5 9.1 9.0 9.1 8.2 8.1 7.9 7.8 7.1
6.6 6.4 6.6 6.9 7.0 7.3 7.3 7.7 9.6 9.1 9.1 9.6 9.5 9.3 9.1 8.7 9.3 9.2 9.4 9.5 9.4 9.2 9.0 8.9 9.4 9.7 8.8 8.4 8.4 8.3 8.4 8.8 9.6 9.6 9.4 9.6 9.5 9.2 9.1 8.8 8.5 8.3 7.8 7.3 7.0
6.5 6.4 6.5 6.9 7.0 7.3 7.8 9.3 9.1 8.4 8.5 9.5 9.6 9.6 9.3 9.5 9.6 9.6 9.7 9.6 8.8 8.6 8.2 8.4 8.9 9.5 9.6 9.5 9.6 9.3 9.4 9.5 9.7 9.7 9.7 9.7 9.7 9.1 8.8 8.5 8.4 7.8 7.4 7.0 6.7
6.6 6.7 6.9 7.0 7.0 7.5 8.0 9.6 8.5 8.6 8.3 8.5 8.6 9.6 9.5 9.7 9.6 9.7 9.7 9.7 8.1 8.3 8.3 8.3 8.3 8.7 9.2 9.4 9.5 9.3 9.0 8.8 9.3 9.5 9.7 9.7 9.7 9.6 9.4 9.1 8.8 8.2 7.1 6.7 6.4
6.6 6.9 6.8 6.8 7.2 7.9 8.3 8.3 8.4 8.7 8.6 8.7 8.9 8.9 9.2 8.9 8.8 8.6 9.6 8.9 8.1 8.2 8.0 8.0 8.4 9.1 9.4 9.6 9.7 9.7 9.1 8.8 9.2 9.6 9.5 9.6 9.5 9.7 9.5 9.3 8.9 7.8 7.0 6.5 6.4
6.7 7.2 6.9 7.0 7.2 7.3 8.3 8.7 8.5 8.4 8.5 8.7 9.0 8.5 8.3 8.4 8.3 8.2 8.5 8.9 8.4 7.9 7.8 7.8 8.1 8.2 8.4 8.5 9.2 9.5 9.7 9.5 9.5 9.3 9.1 9.6 9.7 9.6 9.3 8.9 8.0 7.2 7.0 6.5 6.2
6.9 7.8 7.7 7.4 7.4 7.6 8.1 9.5 8.8 9.1 8.5 8.3 8.2 8.2 8.3 8.3 8.4 8.6 8.8 8.6 8.6 8.1 7.9 7.7 7.9 8.0 8.1 8.3 8.4 8.6 8.6 8.7 8.7 8.9 8.9 8.7 8.8 9.4 9.1 7.4 7.0 6.7 6.6 6.3 6.0
6.0 6.3 6.8 7.5 7.8 7.5 7.8 7.9 9.0 9.5 9.6 8.9 8.1 8.3 8.3 8.6 8.2 8.3 8.8 8.8 8.4 8.3 8.0 8.1 7.9 7.8 7.8 8.2 8.4 8.3 8.3 8.4 8.5 8.9 9.5 8.9 9.0 9.3 7.7 7.2 6.6 6.6 6.8 6.9 6.4
6.1 6.4 6.3 7.2 7.5 7.9 8.0 8.1 8.2 8.5 8.7 8.5 8.0 7.8 8.0 7.9 7.7 7.9 8.0 8.1 8.1 8.1 8.1 8.3 8.2 8.0 7.5 7.9 7.7 7.7 8.3 8.9 9.5 9.3 8.4 8.2 7.8 7.6 7.2 7.0 6.6 6.6 6.6 6.8 6.4
Wind_Speed
12 12 11 10 10 10 11 10 10 10 11 12 13 14 15 17 22 7 11 3 4 9 4 13 8 10 8 7 12 2 4 5 5 4 12 11 12 13 14 11 7 2 19 19 19
13 12 11 10 10 10 11 11 11 11 11 12 13 14 14 14 9 16 4 9 10 10 9 10 9 4 9 6 7 5 4 2 13 8 6 9 13 12 10 12 11 17 21 21 19
13 13 11 11 11 10 11 11 11 11 12 13 13 14 14 13 10 6 8 9 9 8 13 18 7 10 13 11 6 5 5 10 10 10 7 11 8 23 1 3 15 17 18 19 17
14 13 12 11 11 11 10 11 11 11 12 13 14 14 15 6 3 6 8 7 7 9 13 18 10 6 4 4 20 7 19 6 7 6 8 10 5 16 9 9 17 19 18 19 17
14 14 13 12 11 11 10 10 11 12 13 13 14 13 7 9 2 11 10 8 9 11 15 12 13 2 4 9 10 9 8 9 5 3 9 5 5 5 11 13 15 19 18 17 16
15 14 14 12 12 12 11 11 11 12 13 13 12 13 6 13 8 14 12 10 13 13 16 3 8 17 11 5 10 10 7 8 5 4 4 9 5 3 13 12 15 16 16 15 16
15 15 15 13 12 12 11 12 12 14 13 12 11 6 10 11 2 12 11 10 11 14 9 11 10 7 7 11 10 28 10 13 10 7 1 12 4 12 21 10 13 14 14 14 14
16 15 15 13 13 13 12 12 13 14 13 12 8 7 8 3 4 9 9 7 10 11 11 14 8 14 3 7 10 19 9 9 13 21 19 7 6 8 22 12 15 13 11 12 13
16 15 14 13 13 13 13 15 15 13 11 10 6 7 12 4 10 11 12 10 7 10 12 8 10 11 4 21 5 6 4 13 10 16 10 22 6 18 7 20 14 13 14 12 12
15 15 14 13 12 13 15 10 8 11 8 9 11 10 11 9 10 11 12 9 7 14 5 9 7 7 6 5 6 7 6 8 14 11 13 16 5 19 22 15 25 17 14 15 13
15 14 13 13 11 11 11 4 4 5 11 12 7 13 6 5 4 8 10 10 12 14 4 13 2 5 18 21 1 4 3 7 10 19 11 14 7 4 22 20 23 18 18 16 15
14 13 12 11 11 9 6 6 6 11 13 20 15 4 1 6 8 11 8 12 10 5 7 1 2 17 16 22 5 8 10 11 15 16 17 2 20 23 13 16 21 18 16 17 17
14 12 10 10 10 5 11 14 13 9 7 17 13 12 7 13 10 12 11 12 10 8 13 4 13 15 8 3 5 9 11 8 9 5 11 6 17 17 25 25 8 3 19 15 18
12 11 9 6 4 9 12 18 13 5 6 13 13 8 9 9 3 10 11 2 8 12 16 9 15 5 7 7 9 3 7 11 9 4 4 15 5 4 15 20 3 3 3 5 14
10 10 8 8 11 11 3 2 5 5 4 15 12 11 10 8 6 7 9 7 1 6 3 2 5 10 9 3 5 9 10 10 14 10 5 5 9 6 15 9 11 12 11 8 12
10 8 7 6 5 12 5 3 6 7 4 11 10 11 12 13 9 8 7 9 9 4 18 9 13 5 8 4 6 12 15 14 16 11 6 8 7 8 7 9 10 9 10 12 12
9 9 7 8 1 4 5 6 6 8 13 11 13 15 18 14 16 9 13 15 5 7 15 14 14 5 3 9 3 13 14 4 5 3 3 7 1 10 15 11 7 4 4 5 6
7 6 14 8 14 11 7 8 10 2 11 12 14 16 18 13 13 6 14 4 16 15 9 6 5 6 8 3 8 12 9 10 12 9 3 4 4 8 15 14 10 8 5 7 6
5 4 5 9 16 8 7 9 6 2 6 4 18 13 8 6 9 7 21 10 11 22 15 9 8 4 6 4 3 6 10 16 10 14 6 5 12 18 10 12 12 9 11 12 7
4 8 10 12 11 7 7 15 10 8 8 8 6 5 12 11 13 16 6 2 7 14 9 12 9 7 10 4 13 8 8 8 6 5 7 10 8 10 10 10 10 8 9 10 9
4 7 11 9 7 7 11 12 3 4 7 6 9 2 10 10 11 10 4 6 3 5 2 9 11 13 3 10 8 8 6 11 11 6 6 10 7 12 9 6 6 6 9 10 8
6 6 10 10 7 8 13 15 2 5 5 8 7 11 4 8 6 5 12 6 10 4 10 15 12 11 17 17 6 8 8 10 8 11 11 12 10 6 7 3 7 8 11 11 6
5 6 7 10 8 11 17 4 4 4 6 5 5 4 8 9 5 10 13 12 5 3 8 10 8 9 11 13 9 3 5 10 10 11 12 11 10 7 11 13 10 11 9 9 10
5 5 5 9 13 16 15 7 9 5 11 4 8 6 7 6 10 6 13 5 5 4 6 3 12 13 12 18 17 14 14 15 14 12 15 15 17 15 17 16 8 7 9 9 7
5 6 8 9 12 15 16 7 13 10 9 9 7 8 10 10 9 11 11 10 8 12 6 4 12 13 16 17 18 20 20 18 19 16 16 18 18 16 13 14 14 12 10 7 4
7 6 11 11 14 16 13 12 12 11 8 7 8 11 13 9 9 12 11 7 6 7 8 9 12 13 17 19 19 20 20 19 19 20 17 18 15 12 14 13 12 10 11 10 4
7 9 7 10 13 10 12 14 13 12 14 8 9 12 9 12 12 11 13 9 13 14 13 15 12 13 17 19 20 17 19 19 13 8 11 12 13 14 12 12 10 12 12 9 5
Wind_Direction
354 350 343 337 333 330 328 328 331 330 324 320 321 315 316 319 304 239 260 149 210 169 201 259 217 241 224 258 72 9 278 67 136 216 109 141 128 72 92 121 115 49 136 147 146
351 348 342 333 327 325 325 327 332 326 320 316 316 316 316 326 279 266 161 145 162 182 242 234 237 197 228 80 36 41 299 144 129 174 239 130 93 134 137 146 130 89 110 131 157
346 344 338 328 324 322 323 324 326 320 316 317 313 315 320 318 271 188 174 160 180 212 260 273 302 251 305 118 125 210 241 73 37 158 139 128 98 108 95 324 140 131 136 148 161
341 339 333 326 321 316 321 320 319 313 311 313 315 321 316 252 323 107 169 144 190 253 271 273 232 10 257 258 175 184 228 90 154 142 126 101 161 126 153 109 122 135 146 155 165
338 333 330 323 317 311 315 313 313 310 307 310 316 321 290 238 253 141 156 164 213 236 248 276 91 324 219 305 55 295 254 140 85 225 106 118 44 77 95 102 116 136 152 160 171
335 330 324 321 314 309 312 310 307 300 300 306 309 313 252 272 95 153 185 188 241 232 267 212 275 206 205 144 148 235 114 155 163 133 127 190 137 260 123 129 131 146 163 171 174
331 326 321 317 311 307 309 307 303 295 297 299 307 293 266 274 146 166 192 213 233 262 292 293 323 301 333 340 37 22 8 354 178 181 131 109 3 28 293 148 141 159 173 176 180
326 323 317 315 311 308 308 302 294 287 288 280 271 258 272 122 270 187 205 220 252 259 269 301 329 289 280 344 39 41 12 341 303 344 325 236 113 261 265 248 159 168 174 179 182
324 318 315 313 309 309 308 302 285 282 266 267 243 226 262 134 212 207 214 239 233 267 263 283 283 325 291 42 19 104 162 256 287 323 316 281 189 222 169 330 164 168 170 183 189
320 314 312 310 309 312 306 279 282 291 228 240 260 272 241 230 184 199 214 267 259 271 310 322 35 355 331 123 204 177 212 217 190 243 260 272 304 145 137 194 257 172 180 178 190
317 312 310 309 310 321 310 205 192 204 221 219 208 232 157 133 156 224 213 222 251 268 91 359 50 232 259 289 35 151 39 299 199 216 218 232 262 352 162 165 284 165 182 190 185
312 308 308 306 308 314 281 243 322 338 201 234 278 279 145 161 193 215 205 228 266 43 55 113 233 250 242 255 23 104 121 271 254 159 208 66 29 19 347 194 218 173 185 196 188
307 301 302 302 307 265 235 269 324 327 261 198 226 230 205 210 223 178 201 212 240 115 37 195 257 233 278 1 14 8 324 325 334 303 38 20 33 48 322 315 48 347 180 188 205
300 296 294 294 288 201 229 246 252 297 274 154 200 238 186 228 242 233 208 204 275 142 184 223 257 261 264 346 332 325 279 305 317 76 172 254 147 256 230 255 162 204 62 224 199
291 286 280 252 318 214 154 245 275 256 280 150 180 129 185 213 222 186 197 229 287 329 199 332 292 267 334 66 333 328 329 300 291 266 185 297 129 210 206 201 61 56 36 18 341
283 274 273 215 238 264 292 240 228 238 197 162 147 189 176 194 181 142 202 242 275 244 344 265 282 265 322 340 269 306 271 261 288 277 337 80 152 164 128 66 45 40 34 11 355
271 258 238 309 270 25 292 221 222 255 146 150 165 178 199 191 188 165 195 210 138 37 317 323 283 191 299 288 348 286 300 314 284 75 291 80 74 108 119 112 107 110 58 55 358
254 240 229 254 311 307 270 229 258 0 188 152 173 182 215 182 176 197 209 190 140 145 159 239 247 211 143 308 343 305 325 338 334 356 277 150 92 137 124 128 151 72 38 140 92
200 203 250 236 225 252 258 232 271 297 52 198 168 196 186 234 100 325 260 163 151 222 254 173 256 135 204 312 294 337 304 356 309 292 294 17 33 84 96 129 68 34 15 347 85
240 197 215 220 183 233 246 257 303 25 335 211 234 172 215 175 207 203 254 56 150 185 345 328 321 315 124 212 245 229 333 314 337 309 328 351 314 79 62 40 22 357 353 57 15
250 215 166 169 209 239 242 263 68 114 277 276 261 314 244 183 219 238 246 123 186 327 64 303 288 297 165 253 257 180 265 318 297 274 295 285 327 103 88 41 357 356 39 38 22
263 228 151 182 223 234 243 260 6 145 221 297 323 324 271 332 326 300 305 33 68 4 311 311 316 304 312 314 235 275 310 298 301 307 309 314 303 28 88 145 26 5 69 44 49
258 214 155 195 230 228 238 295 241 218 196 227 235 256 345 316 321 293 302 108 108 328 9 333 309 318 316 285 231 212 265 292 303 307 288 291 287 297 350 357 30 63 40 63 77
277 184 154 211 248 293 275 209 208 269 315 289 324 15 306 262 272 278 287 287 165 114 93 307 273 281 284 298 313 309 305 297 299 293 294 292 306 330 337 332 19 9 45 54 105
253 267 165 198 220 248 265 255 233 197 212 284 268 252 278 284 275 262 238 254 252 161 189 238 266 275 280 291 302 305 301 297 292 281 278 292 296 311 352 37 35 28 14 360 348
294 345 347 272 212 233 259 283 287 247 214 204 230 260 299 268 283 295 305 313 302 156 234 252 272 268 274 278 281 287 292 280 283 280 283 295 299 7 33 32 18 357 331 328 336
12 321 283 290 265 218 253 245 248 271 287 323 297 311 285 8 347 327 327 323 309 297 286 287 290 298 290 303 302 288 281 278 298 331 342 326 352 8 14 5 359 343 317 331 16